2 Line ISS Keps 4-19
![](https://secure.gravatar.com/avatar/686c4a390cb673165ed7c2a32b1a0a50.jpg?s=120&d=mm&r=g)
19 Apr
2007
19 Apr
'07
3:01 a.m.
ISS 1 25544U 98067A 07107.90220069 +.00017218 +00000-0 +98156-4 0 00390 2 25544 051.6326 055.3988 0015948 079.0030 352.9325 15.78901322481256
6502
Age (days ago)
6502
Last active (days ago)
0 comments
1 participants
participants (1)
-
Dave Larsen PhD